Simultaneous Nadir Overpasses (SNOs) Predictions

Prediction of SNOs between FY3D and AQUA Satellite Orbit:

Table of predicted SNOs for the next 14.0 days since TLE Epoch: 3/11/2023
Index Date (FY3D) Time (FY3D) Lat,Lon (FY3D) SZA (FY3D ) Date (AQUA) Time (AQUA) Lat,Lon (AQUA) SZA (AQUA ) Distance(km) Time Diff (sec)
1 03/13/2023 09:47:34 77.99, 16.69 81.53 03/13/2023 09:47:35 77.99, 16.69 81.52 0.22 1
2 03/13/2023 10:34:33 -66.89,-149.60 110.14 03/13/2023 10:33:20 -66.59,-151.41 110.52 86.23 73
3 03/15/2023 23:33:20 -78.24, -11.08 99.17 03/15/2023 23:34:01 -78.25, -11.10 99.18 0.61 41
4 03/16/2023 00:23:55 77.78, 158.70 80.21 03/16/2023 00:23:16 77.78, 158.71 80.22 0.24 39
5 03/18/2023 14:09:40 -78.05, 130.91 100.47 03/18/2023 14:09:39 -78.05, 130.93 100.47 0.49 1
6 03/21/2023 03:55:27 78.30, 103.14 78.83 03/21/2023 03:56:01 78.29, 103.23 78.81 2.16 34
7 03/21/2023 04:46:00 -77.83, -86.99 101.80 03/21/2023 04:45:15 -77.83, -86.92 101.80 1.73 45
8 03/23/2023 17:41:08 -78.39, 76.24 102.08 03/23/2023 17:42:17 -78.39, 76.18 102.10 1.53 69



Historial Predications of SNOs between FY3D and AQUA
